Terug naar catalogus

ASTRA-HyRAX

ActiefVLEO
NORAD 68631·ROCKET BODY·🇺🇸 United States

Gelanceerd Apr 7, 2026 vanaf Vandenberg Space Force Base

Loading…

Volgende Passages (komende 24 uur)

TLE

VersSource: Space-Track

Epoch: Sep 14, 2026, 01:53 UTC

1 68631U 26074E   26257.07873300  .00003179  00000-0  13501-3 0  9996
2 68631  60.0210 196.8558 0036524  87.3697 273.1564 15.25176979 24340

Volg ASTRA-HyRAX in realtime met AllMySat

Download on the App Store